Weather in Dawei

Myanmar     14°01′00″N   98°12′30″E
temp.,
°C
wind,
m/s
gust,
m/s
humid.,
%
clouds,
%
prec.,
mm/h
press.,
hPa
HPBL,
m
24 july, sat
sat2400:30+25sw2695100 8.4 1008256
03:30+25sw2695100 3.4 1007247
06:30+25wsw3794100 9.0 1007455
09:30+25w4895100 11.0 1009534
12:30+24w4893100 20.3 1009528
15:30+24wsw4992100 7.0 1007422
18:30+24sw4992100 12.3 1008341
21:30+24sw3891100 5.1 1009281
25 july, sun
sun2500:30+24wsw3893100 10.1 1009375
03:30+23sw2697100 6.4 1007311
06:30+24sw2798100 16.8 1008399
09:30+24sw4895100 12.8 1009417
12:30+24ssw4995100 24.4 1009519
15:30+24sw4995100 9.0 1007611
18:30+24sw4997100 20.4 1008616
21:30+24wsw4996100 16.0 1010625
26 july, mon
mon2600:30+24wsw4996100 26.4 1009557
03:30+24sw4994100 5.4 1007491
06:30+24sw3896100 10.9 1008425
09:30+24sw3897100 9.5 1009533
12:30+24sw2497100 18.9 1008293
15:30+24wsw3797100 9.3 1006413
18:30+24w3798100 19.9 1007388
21:30+24wsw2794100 5.8 1008287
27 july, tue
tue2700:30+24w399087 8.9 1006235
03:30+24wsw4109268 6.2 1005397
06:30+24w389389 14.5 1007296
09:30+26wsw2589100 5.7 1008338
12:30+26sw3888100 10.1 1007375
15:30+25wsw3787100 4.2 1005273
18:30+25wsw51087100 11.3 1005309
21:30+25wsw4992100 8.6 1007271
28 july, wed
wed2800:30+25wsw4994100 18.9 1006349
03:30+24wsw3894100 9.8 1005272
06:30+25wsw3791100 18.6 1006196
09:30+27wsw3684100 5.4 1008669
12:30+28sw4682100 10.0 1006917
15:30+27wsw4789100 5.3 1005739
18:30+25sw3690100 10.4 1006172
21:30+25sw2489100 3.1 100862